Change the Weather History Date:

Friday, December 30, 2011

  Actual Average Record
Temperature  
Mean Temperature 56 °F 49 °F  
Max Temperature 73 °F 59 °F 80 °F (1973)
Min Temperature 39 °F 39 °F 14 °F (1983)
Degree Days  
Heating Degree Days 9 16  
Month to date heating degree days 459 449  
Since 1 July heating degree days 800 774  
Growing Degree Days 6 (Base 50)    
Moisture  
Dew Point 45 °F    
Average Humidity 71    
Maximum Humidity 100    
Minimum Humidity 41    
Precipitation  
Precipitation 0.01 in 0.13 in 3.40 in (2006)
Month to date precipitation 6.21 5.99  
Year to date precipitation 35.87 55.79  
Snow  
Snow 0.00 in - 0.00 in ()
Month to date snowfall 0.0  
Since 1 July snowfall 0.0  
Snow Depth 0.00 in    
Sea Level Pressure  
Sea Level Pressure 29.97 in    
Wind  
Wind Speed 6 mph (South)    
Max Wind Speed 15 mph    
Max Gust Speed 20 mph    
Visibility 4 miles    
Events Fog    
T = Trace of Precipitation, MM = Missing Value Source: NWS Daily Summary

Daily Weather History Graph

Daily Weather History Graph

Search for Another Location

Airport or City:

Trip Planner

Search our weather history database for the weather conditions in past years. The results will help you decide how hot, cold, wet, or windy it might be!

Date:

Astronomy

Dec. 30, 2011 Rise Set
Actual Time 7:08 AM CST 5:16 PM CST
Civil Twilight 6:41 AM CST 5:43 PM CST
Nautical Twilight 6:11 AM CST 6:13 PM CST
Astronomical Twilight 5:42 AM CST 6:43 PM CST
Moon 10:52 AM CST (12/30) 11:25 PM CST (12/30)
Length of Visible Light 11h 01m
Length of Day
10h 08m
Waxing Crescent, 36% of the Moon is Illuminated
Dec 30
Waxing Crescent
Jan 1
First Quarter
Jan 9
Full
Jan 16
Last Quarter
Jan 23
New

Hourly Weather History & Observations

Time (CST) Temp. Windchill Dew Point Humidity Pressure Visibility Wind Dir Wind Speed Gust Speed Precip Events Conditions
12:30 AM 48.2 °F - 48.2 °F 100% 29.92 in 1.8 mi SSE 3.5 mph - N/A   Partly Cloudy
12:36 AM 48.2 °F - 48.2 °F 100% 29.92 in 0.8 mi SSE 4.6 mph - N/A   Mist
12:47 AM 48.2 °F - 46.4 °F 93% 29.92 in 1.0 mi South 3.5 mph - N/A   Clear
12:53 AM 48.9 °F - 48.0 °F 97% 29.93 in 2.0 mi South 3.5 mph - N/A   Clear
1:05 AM 46.4 °F - 46.4 °F 100% 29.92 in 1.0 mi Calm Calm - N/A   Clear
1:19 AM 46.4 °F 45.2 °F 46.4 °F 100% 29.92 in 0.5 mi South 3.5 mph - N/A Fog Fog
1:27 AM 48.2 °F - 48.2 °F 100% 29.92 in 1.5 mi South 4.6 mph - N/A   Partly Cloudy
1:30 AM 48.2 °F - 48.2 °F 100% 29.92 in 3.0 mi South 4.6 mph - N/A   Partly Cloudy
1:43 AM 48.2 °F - 46.4 °F 93% 29.93 in 1.8 mi Calm Calm - N/A   Partly Cloudy
1:53 AM 48.0 °F - 46.9 °F 96% 29.94 in 1.8 mi South 3.5 mph - N/A   Clear
1:55 AM 48.2 °F - 46.4 °F 93% 29.92 in 4.0 mi South 3.5 mph - N/A   Clear
2:17 AM 44.6 °F 43.1 °F 44.6 °F 100% 29.93 in 1.5 mi SE 3.5 mph - N/A   Clear
2:25 AM 46.4 °F - 46.4 °F 100% 29.93 in 0.5 mi Calm Calm - N/A Fog Fog
2:36 AM 46.4 °F 45.2 °F 44.6 °F 93% 29.93 in 0.5 mi SSE 3.5 mph - N/A Fog Fog
2:51 AM 44.6 °F - 44.6 °F 100% 29.94 in 0.2 mi Calm Calm - N/A Fog Fog
2:53 AM 45.0 °F - 45.0 °F 100% 29.95 in 0.2 mi Calm Calm - N/A Fog Fog
3:02 AM 42.8 °F - 42.8 °F 100% 29.95 in 0.5 mi Calm Calm - N/A Fog Fog
3:18 AM 46.4 °F 42.4 °F 46.4 °F 100% 29.93 in 0.2 mi SSE 8.1 mph - N/A Fog Fog
3:26 AM 44.6 °F 40.7 °F 44.6 °F 100% 29.93 in 1.0 mi South 6.9 mph - N/A   Mist
3:28 AM 44.6 °F 40.7 °F 44.6 °F 100% 29.93 in 2.0 mi SSE 6.9 mph - N/A   Partly Cloudy
3:53 AM 45.0 °F 43.5 °F 44.1 °F 97% 29.95 in 4.0 mi SSE 3.5 mph - 0.01 in   Clear
4:06 AM 44.6 °F 41.4 °F 44.6 °F 100% 29.93 in 2.0 mi SSE 5.8 mph - N/A   Clear
4:17 AM 44.6 °F 43.1 °F 42.8 °F 93% 29.93 in 3.0 mi SSE 3.5 mph - N/A   Clear
4:21 AM 42.8 °F - 42.8 °F 100% 29.93 in 1.5 mi Calm Calm - N/A   Clear
4:31 AM 42.8 °F 40.1 °F 42.8 °F 100% 29.94 in 0.5 mi SE 4.6 mph - N/A Fog Fog
4:38 AM 41.0 °F 36.4 °F 41.0 °F 100% 29.93 in 0.2 mi SE 6.9 mph - N/A Fog Fog
4:53 AM 41.0 °F - 41.0 °F 100% 29.96 in 0.5 mi Calm Calm - N/A Fog Fog
5:02 AM 42.8 °F - 42.8 °F 100% 29.95 in 1.2 mi Calm Calm - N/A   Partly Cloudy
5:20 AM 42.8 °F - 41.0 °F 93% 29.96 in 0.8 mi Calm Calm - N/A   Mist
5:35 AM 41.0 °F - 41.0 °F 100% 29.96 in 0.2 mi Calm Calm - N/A Fog Fog
5:53 AM 42.8 °F 40.1 °F 42.8 °F 100% 29.95 in 0.2 mi ESE 4.6 mph - N/A Fog Fog
6:28 AM 42.8 °F 41.1 °F 41.0 °F 93% 29.97 in 1.0 mi SE 3.5 mph - N/A   Mist
6:35 AM 41.0 °F 39.0 °F 41.0 °F 100% 29.97 in 1.8 mi SE 3.5 mph - N/A   Partly Cloudy
6:53 AM 41.0 °F - 39.9 °F 96% 30.00 in 1.0 mi Calm Calm - N/A   Clear
7:01 AM 39.2 °F - 37.4 °F 93% 29.98 in 0.8 mi Calm Calm - N/A   Clear
7:07 AM 39.2 °F - 37.4 °F 93% 29.98 in 1.5 mi Calm Calm - N/A   Partly Cloudy
7:16 AM 42.8 °F 40.1 °F 39.2 °F 87% 29.98 in 10.0 mi SE 4.6 mph - N/A   Partly Cloudy
7:19 AM 42.8 °F 40.1 °F 41.0 °F 93% 29.98 in 0.2 mi ESE 4.6 mph - N/A Fog Fog
7:31 AM 42.8 °F - 42.8 °F 100% 29.99 in 0.5 mi Calm Calm - N/A Fog Fog
7:40 AM 39.2 °F - 39.2 °F 100% 30.00 in 10.0 mi Calm Calm - N/A   Clear
7:53 AM 42.1 °F 38.4 °F 39.9 °F 92% 30.01 in 10.0 mi SE 5.8 mph - N/A   Clear
8:53 AM 50.0 °F - 46.9 °F 89% 30.03 in 9.0 mi SSE 5.8 mph - N/A   Clear
9:53 AM 57.0 °F - 50.0 °F 77% 30.04 in 10.0 mi South 3.5 mph - N/A   Clear
10:53 AM 64.0 °F - 52.0 °F 65% 30.04 in 10.0 mi SW 6.9 mph - N/A   Clear
11:53 AM 66.9 °F - 54.0 °F 63% 30.00 in 10.0 mi SSW 10.4 mph - N/A   Clear
12:53 PM 71.1 °F - 48.0 °F 44% 29.98 in 10.0 mi WSW 15.0 mph - N/A   Clear
1:53 PM 72.0 °F - 48.0 °F 43% 29.95 in 10.0 mi SW 13.8 mph - N/A   Clear
2:53 PM 73.0 °F - 48.0 °F 41% 29.97 in 10.0 mi WSW 9.2 mph - N/A   Clear
3:53 PM 72.0 °F - 48.9 °F 44% 29.96 in 10.0 mi WSW 8.1 mph - N/A   Clear
4:53 PM 66.9 °F - 52.0 °F 59% 29.99 in 10.0 mi WSW 4.6 mph - N/A   Clear
5:53 PM 59.0 °F - 48.9 °F 69% 30.02 in 10.0 mi NW 4.6 mph - N/A   Clear
6:53 PM 59.0 °F - 46.9 °F 64% 30.04 in 10.0 mi Calm Calm - N/A   Clear
7:53 PM 55.0 °F - 48.0 °F 77% 30.04 in 10.0 mi Calm Calm - N/A   Clear
8:53 PM 51.1 °F - 46.0 °F 83% 30.06 in 10.0 mi Calm Calm - N/A   Clear
9:53 PM 48.9 °F - 46.9 °F 93% 30.05 in 7.0 mi Calm Calm - N/A   Clear
10:53 PM 46.9 °F - 45.0 °F 93% 30.06 in 9.0 mi Calm Calm - N/A   Clear
11:53 PM 46.0 °F 44.8 °F 45.0 °F 96% 30.06 in 7.0 mi SSW 3.5 mph - N/A   Clear